Location: Asheville, NC
(35.6000°N, 82.5500°W)
Time: 01:18:19
(UTC-05:00)

OTV 5 (USA 277) - Pass Details

Date: 12 October 2017
Orbit: 404 x 417 km, 43.0° (Epoch: 07 September)

Event Time Altitude Azimuth Distance (km) Brightness Sun altitude
Rises 21:13:57 0° 286° (WNW) 2,349 ? -28.3°
Reaches altitude 10° 21:16:21 10° 302° (WNW) 1,486 ? -28.8°
Enters shadow 21:17:10 14° 312° (NW) 1,244 ? -28.9°
